This demonstration page uses our WeatherBlox Daily Observations layout. Learn more.

Left ArrowRight Arrow

38.88101, -77.10428

Hourly Observations for December 31, 2019

Temp ( °F °C ) Dew Point ( °F °C ) Humidity (%) Winds ( mph kmh ) Pressure ( in mb ) Visibility ( mi km ) Precip ( " mm )
12:52 am 00:52 Cloudy 45 7.2 42 5.6 90 90 NE 3 6 29.74 1007 8 13 N/A
1:34 am 01:34 Cloudy with Mist and Fog 44 6.7 42 5.6 93 93 NE 8 13 29.73 1007 6 10 N/A
1:52 am 01:52 Cloudy with Mist and Fog 45 7.2 42 5.6 90 90 NNE 5 7 29.74 1007 6 10 N/A
2:21 am 02:21 Cloudy with Mist and Fog 44 6.7 42 5.6 93 93 NE 7 11 29.75 1008 6 10 N/A
2:52 am 02:52 Cloudy with Mist and Fog 45 7.2 43 6.1 93 93 N 8 13 29.76 1008 6 10 N/A
3:13 am 03:13 Cloudy with Mist and Fog 45 7.2 43 6.1 93 93 N 6 9 29.76 1008 3 5 N/A
3:34 am 03:34 Cloudy with Mist and Fog 45 7.2 43 6.1 93 93 N 5 7 29.76 1008 4 6 N/A
3:52 am 03:52 Cloudy with Mist and Fog 45 7.2 43 6.1 93 93 N 6 9 29.75 1007 4 6 N/A
4:52 am 04:52 Cloudy 44 6.7 41 5 89 89 N 7 11 29.74 1007 10 16 N/A
5:11 am 05:11 Cloudy 44 6.7 41 5 89 89 N 7 11 29.74 1007 10 16 N/A
5:44 am 05:44 Cloudy 43 6.1 40 4.4 89 89 NE 3 6 29.74 1007 10 16 N/A
5:52 am 05:52 Cloudy 43 6.1 40 4.4 89 89 ENE 5 7 29.74 1007 10 16 N/A
6:14 am 06:14 Cloudy 44 6.7 41 5 89 89 NE 5 7 29.74 1007 9 14 N/A
6:52 am 06:52 Cloudy 44 6.7 41 5 89 89 ENE 3 6 29.75 1007 9 14 N/A
7:52 am 07:52 Cloudy 44 6.7 41 5 89 89 SW 6 9 29.75 1008 7 11 N/A
8:47 am 08:47 Cloudy 45 7 43 6 93 93 SW 3 6 29.77 1008 7 11 N/A
8:52 am 08:52 Cloudy 45 7.2 42 5.6 90 90 SW 5 7 29.76 1008 7 11 N/A
9:52 am 09:52 Cloudy with Mist and Fog 46 7.8 43 6.1 89 89 S 8 13 29.76 1008 5 8 N/A
10:32 am 10:32 Cloudy 47 8.3 43 6.1 86 86 S 8 13 29.76 1008 8 13 N/A
10:52 am 10:52 Cloudy 47 8.3 43 6.1 86 86 S 6 9 29.75 1008 9 14 N/A
11:48 am 11:48 Cloudy 50 10 43 6 76 76 SW 10 17 29.73 1007 10 16 N/A
11:52 am 11:52 Cloudy 51 10.6 43 6.1 74 74 SW 7 11 29.72 1007 10 16 N/A
12:44 pm 12:44 Cloudy 52 11.1 41 5 66 66 SW 8 13 29.70 1006 10 16 N/A
12:52 pm 12:52 Cloudy 53 11.7 41 5 64 64 SSW 6 9 29.70 1006 10 16 N/A
1:52 pm 13:52 Mostly Cloudy 53 11.7 34 1.1 48 48 WSW 12 19 29.68 1005 10 16 N/A
2:52 pm 14:52 Mostly Cloudy 54 12.2 33 0.6 45 45 SW 14 22 29.67 1005 10 16 N/A
3:52 pm 15:52 Partly Cloudy 52 11.1 29 -1.7 41 41 SW 13 20 29.68 1005 10 16 N/A
4:52 pm 16:52 Mostly Cloudy 52 11.1 30 -1.1 43 43 SW 10 17 29.68 1005 10 16 N/A
5:52 pm 17:52 Mostly Cloudy 51 10.6 30 -1.1 44 44 SW 7 11 29.69 1005 10 16 N/A
6:52 pm 18:52 Cloudy 51 10.6 30 -1.1 44 44 NW 12 19 29.71 1006 10 16 N/A
7:52 pm 19:52 Cloudy 49 9.4 29 -1.7 46 46 NW 10 17 29.72 1006 10 16 N/A
8:52 pm 20:52 Mostly Cloudy 47 8.3 29 -1.7 50 50 NW 9 15 29.73 1007 10 16 N/A
9:52 pm 21:52 Partly Cloudy 46 7.8 28 -2.2 50 50 NW 16 26 29.74 1007 10 16 N/A
10:52 pm 22:52 Mostly Cloudy 45 7.2 29 -1.7 54 54 NW 12 19 29.75 1008 10 16 N/A
11:52 pm 23:52 Mostly Cloudy 45 7.2 28 -2.2 52 52 NW 14 22 29.75 1008 10 16 N/A

Powered by AerisWeather